Back to catalog

STARLINK-35701

AliveCommunicationsVLEO
NORAD 67118·PAYLOAD·🇺🇸 United States

Launched Dec 15, 2025 from Cape Canaveral Space Force Station

Loading…

Next Passes (next 24 hours)

TLE

FreshSource: CelesTrak SupGP

Epoch: Sep 15, 2026, 03:40 UTC

1 67118C 25299S   26258.15326389  .00010774  00000+0  39030-3 0  2584
2 67118  42.9998 178.7866 0001264 269.5776 128.4144 15.27568919    12

Track STARLINK-35701 in real time with AllMySat

Download on the App Store